Location: Country View Observatory
(32.9873°N, 83.6444°W)
Time: 07:11:13
(UTC-04:00)

ISS - Pass Details

Date: 21 September 2019
Orbit: 411 x 421 km, 51.6° (Epoch: 18 October)

Event Time Altitude Azimuth Distance (km) Brightness Sun altitude
Rises 20:40:31 0° 259° (W) 2,333 1.4 -14.9°
Reaches altitude 10° 20:43:01 10° 278° (W) 1,473 0.4 -15.5°
Maximum altitude 20:45:27 19° 326° (NW) 1,058 -1.2 -16.0°
Drops below altitude 10° 20:47:53 10° 13° (NNE) 1,477 -1.0 -16.5°
Enters shadow 20:49:11 - 26° (NNE) 1,904 -0.6 -16.7°
